Wind_Speed
12 11 10 10 10 10 11 10 10 10 10 10 9 9 9 9 9 8 8 7 7 7 6 6 7 7 8 8 8 8 8 7 7 7 7 7 7 7 8 7 7 6 6 7 9 9 8 9 8
12 11 10 10 11 11 11 11 10 10 10 9 9 9 9 9 9 9 8 7 7 7 6 6 6 7 8 8 8 8 8 7 7 7 7 7 7 7 7 7 7 6 7 9 9 10 10 9 7
11 10 10 10 11 12 12 12 11 10 9 9 9 10 10 9 8 8 8 7 7 7 7 7 7 8 8 8 8 8 8 8 7 7 7 7 6 6 7 7 8 8 9 10 10 10 9 8 7
10 9 9 11 12 13 12 12 12 11 10 10 10 10 10 9 8 8 8 8 7 7 7 8 8 9 8 8 8 9 8 8 8 7 7 7 7 7 7 7 8 8 9 10 10 9 8 7 7
10 10 10 12 13 14 13 13 13 13 12 11 10 11 11 10 9 9 8 8 8 8 8 9 8 9 9 9 9 9 8 8 8 8 7 7 7 7 8 8 9 9 9 8 8 8 8 7 7
11 11 11 12 13 13 14 14 13 13 13 12 11 11 11 10 9 9 9 9 9 9 9 9 9 9 8 9 9 10 9 9 9 9 7 7 7 8 9 9 9 9 9 8 7 8 7 7 7
11 11 11 12 13 13 14 15 15 13 13 13 12 11 11 11 10 9 9 9 9 9 9 9 10 10 10 9 10 10 10 9 9 9 9 9 9 8 8 8 8 7 7 7 7 6 6 5 5
10 10 11 12 12 13 14 14 14 13 13 13 12 12 11 11 10 10 9 9 9 9 9 10 10 11 11 10 10 11 10 11 11 11 10 11 10 9 8 8 7 6 6 6 6 6 6 5 4
9 9 11 12 12 13 13 13 13 12 12 12 12 11 11 10 10 10 10 10 10 10 10 11 11 12 12 11 11 12 12 11 11 11 11 11 10 9 8 8 7 6 5 6 6 6 5 5 5
8 10 11 12 12 13 12 12 12 11 12 11 11 12 11 11 10 10 11 11 10 10 10 11 12 12 12 12 11 11 12 11 10 10 11 10 9 9 8 7 7 5 5 5 6 5 5 4 4
9 10 11 11 12 12 12 12 12 11 11 11 11 11 11 11 10 10 11 11 11 11 11 12 12 12 12 11 11 11 11 11 10 9 9 9 9 8 8 7 6 5 5 4 5 5 5 4 4
8 9 10 10 11 11 11 11 11 11 11 11 11 11 11 10 10 10 11 11 12 12 12 12 12 12 12 12 12 12 12 11 11 10 10 9 8 8 7 6 5 5 5 4 4 4 4 3 3
7 8 9 9 10 10 10 10 10 11 11 11 11 10 10 10 9 9 10 11 12 12 12 12 12 12 12 12 12 13 12 12 11 10 9 9 8 7 7 6 5 5 5 4 4 4 4 3 2
5 6 8 9 8 8 9 9 10 10 10 10 10 10 9 10 10 9 9 10 11 11 11 11 12 11 11 11 12 12 12 12 11 10 10 9 8 7 7 6 6 5 5 4 3 3 3 2 2
5 5 6 7 7 7 8 8 8 8 8 9 9 9 9 9 9 8 8 9 10 10 10 10 10 11 10 10 10 11 11 11 11 11 10 10 9 7 6 6 5 5 5 5 3 2 2 1 1
5 5 4 4 5 5 6 7 7 6 7 7 7 8 8 9 9 8 8 8 9 9 9 9 9 9 9 9 9 10 9 9 9 10 10 10 9 9 8 7 6 6 5 4 4 3 2 1 1
7 5 4 3 2 3 4 5 5 5 5 5 6 7 8 9 8 8 8 7 8 8 8 8 8 8 8 8 8 8 8 8 7 8 8 9 9 8 8 7 7 6 5 5 4 4 3 2 2
7 6 5 3 2 1 2 2 2 3 3 3 4 5 7 8 8 7 7 7 7 7 7 8 7 7 7 7 7 7 7 7 7 7 7 7 8 7 7 6 6 6 5 5 4 4 3 3 3
8 7 6 5 4 2 1 0 1 2 1 1 2 3 4 6 6 6 6 6 6 7 7 6 6 6 6 6 6 6 6 6 6 6 6 6 6 6 7 6 5 5 5 4 3 3 3 3 4
10 8 7 7 6 4 2 1 1 1 1 1 1 1 2 3 4 4 5 5 5 5 5 5 5 5 5 5 5 5 5 4 4 4 5 5 4 5 6 6 5 4 4 3 4 4 4 4 5
11 10 9 8 8 6 4 3 3 2 2 2 2 2 2 2 2 2 3 3 4 4 4 4 4 4 4 4 3 3 4 4 4 3 4 4 4 4 5 5 5 5 4 4 4 5 5 6 6
11 11 10 9 8 7 6 6 5 4 4 3 3 3 3 3 2 1 2 2 2 3 3 3 3 3 3 3 3 3 3 3 3 3 3 3 3 4 4 5 5 5 4 4 5 6 6 6 7
12 12 12 11 10 8 7 7 6 5 4 4 4 4 4 4 3 2 0 0 0 0 1 1 1 2 2 3 3 3 3 3 3 3 3 4 3 4 4 4 5 5 5 5 6 6 7 8 8
14 13 13 12 11 9 8 8 6 6 6 6 5 4 4 4 4 3 3 2 2 1 1 1 1 2 3 3 4 4 4 4 4 4 4 4 4 5 5 5 5 6 6 7 7 8 8 8 8
16 14 13 12 11 9 8 8 7 6 6 6 6 5 5 5 6 5 5 4 4 3 3 3 3 3 4 5 5 5 5 5 6 6 6 6 6 6 6 6 6 7 7 7 8 8 8 8 8
16 15 14 13 12 10 10 9 8 7 6 6 7 7 8 7 7 7 6 6 6 6 5 5 5 5 6 6 6 7 7 7 8 8 8 8 8 8 7 7 8 8 8 9 9 9 10 10 10
17 17 16 15 14 13 12 10 8 7 7 7 8 8 8 8 7 7 7 7 7 7 7 7 7 8 8 8 8 8 8 8 9 10 10 10 10 9 9 9 9 9 10 11 11 11 12 12 12
19 19 19 17 16 15 13 11 10 9 8 9 9 9 10 9 8 9 9 9 9 9 9 8 8 9 10 10 10 10 9 9 10 11 11 12 12 11 11 11 11 12 12 13 13 14 14 14 14
20 20 20 19 18 17 15 13 12 11 10 10 10 10 11 11 11 11 11 10 10 10 10 11 10 10 11 11 11 11 11 11 12 11 11 11 12 12 13 13 13 14 14 15 16 16 16 16 16
21 21 20 20 19 17 17 15 14 13 12 12 12 12 13 13 13 12 12 12 12 12 12 13 12 12 12 13 13 13 12 12 12 12 13 13 13 13 14 14 14 15 16 17 17 18 18 18 18
Wind_Direction
88 86 83 80 75 73 73 73 75 72 68 66 67 69 66 62 57 52 46 47 48 52 58 62 62 60 62 65 72 73 75 75 73 73 73 88 103 107 111 114 119 114 108 127 137 140 143 148 145
89 84 82 77 76 77 76 75 71 66 65 65 65 64 61 57 56 55 51 51 50 52 61 62 59 61 64 68 69 71 69 70 74 75 79 88 100 109 115 121 123 110 105 117 129 132 133 137 137
87 84 82 78 78 78 74 75 71 67 66 65 63 61 59 57 57 57 54 53 51 56 62 61 62 61 63 67 68 70 68 67 71 74 79 89 100 112 117 125 123 112 110 120 127 131 132 130 125
90 85 80 77 77 75 72 73 72 70 68 66 63 61 59 59 59 59 59 57 59 62 62 64 66 63 65 72 74 71 70 69 69 74 81 91 103 114 122 127 124 114 116 125 129 133 132 127 123
93 86 81 78 73 73 71 68 68 71 68 64 62 62 60 60 60 62 62 61 65 68 69 68 70 69 67 70 75 73 72 71 72 76 85 97 109 114 115 120 118 115 118 124 130 134 135 137 142
91 85 81 79 73 71 69 67 68 68 65 64 63 63 63 62 60 62 61 63 67 70 71 70 69 70 69 70 72 74 79 76 72 76 86 97 106 110 113 117 120 120 124 126 129 132 130 126 132
82 83 82 77 72 71 69 68 69 69 64 64 63 63 64 61 59 61 63 65 69 72 71 71 69 70 70 69 72 71 75 75 76 80 84 94 104 110 113 116 121 122 122 120 124 132 133 126 124
80 80 85 84 78 75 71 70 70 70 69 66 62 60 60 59 57 59 63 68 70 70 70 72 70 69 70 71 72 72 70 72 77 80 87 94 99 105 112 116 118 118 116 119 128 133 131 132 129
82 81 86 84 79 76 75 73 70 69 70 68 65 60 58 59 59 59 64 69 71 73 73 74 73 70 73 73 75 76 75 73 78 83 88 94 96 99 107 112 115 112 113 122 131 139 138 134 132
83 82 86 82 80 78 76 73 69 68 71 70 66 62 60 60 61 62 67 72 72 72 72 77 78 73 77 77 76 77 74 74 79 87 89 87 90 93 100 106 108 109 113 127 134 137 139 141 143
94 87 86 83 81 79 78 76 74 71 73 70 64 60 60 62 65 66 66 69 71 71 72 78 80 77 76 76 75 75 72 73 76 82 87 87 91 95 96 98 107 107 108 115 125 138 143 150 159
96 94 87 84 85 81 79 77 75 73 71 70 66 63 62 66 67 69 67 68 70 74 74 76 79 78 77 77 77 74 75 74 76 84 89 88 87 87 89 90 96 98 94 101 124 137 139 148 158
94 96 90 85 82 81 80 77 74 71 70 70 67 66 65 66 70 69 68 68 70 73 74 76 79 79 77 78 79 75 75 78 80 79 81 83 84 84 84 83 88 91 91 101 111 121 135 156 178
109 104 98 91 80 79 81 77 76 74 70 70 68 66 67 68 70 71 71 69 69 72 74 76 80 79 77 78 79 75 74 76 76 75 73 72 76 80 84 82 84 91 91 102 107 123 133 157 186
141 128 108 90 83 80 75 71 68 74 71 72 69 67 68 67 66 68 74 72 70 71 75 78 79 81 80 78 79 75 75 74 72 69 69 67 66 71 79 79 79 79 76 81 81 85 96 122 176
165 158 135 102 86 80 72 63 60 71 74 73 70 69 70 70 68 70 73 72 71 71 76 80 80 82 81 77 75 75 74 75 73 70 67 63 59 60 67 69 67 63 64 66 66 68 71 66 35
179 173 154 122 91 83 74 68 58 60 67 75 73 73 73 71 69 68 70 69 70 70 76 82 79 80 81 79 76 75 74 75 73 71 66 61 58 59 60 57 58 58 62 62 62 57 50 35 14
193 190 178 171 158 126 64 55 50 40 47 75 82 82 81 74 69 66 63 64 67 71 74 79 79 78 80 78 75 75 74 73 70 69 65 59 58 58 53 49 50 51 60 66 67 61 44 27 3
207 205 196 190 196 199 220 267 347 13 30 81 93 94 90 80 72 69 64 62 65 72 74 78 82 80 79 75 71 68 64 68 66 65 60 58 60 55 46 38 41 47 51 58 53 47 28 5 346
213 210 209 212 220 228 228 244 302 350 302 273 215 137 131 109 89 82 75 67 60 67 75 77 78 78 74 70 64 57 51 53 56 50 48 46 49 41 35 35 35 35 34 34 16 9 356 341 334
222 223 222 228 227 239 243 253 278 290 289 265 254 252 222 185 152 111 88 76 67 66 70 73 75 70 62 56 52 49 35 34 43 39 31 32 37 30 30 27 24 15 9 6 354 352 348 340 338
226 231 234 238 238 244 251 257 265 281 283 281 266 255 231 215 212 128 88 87 78 69 68 64 70 63 48 34 22 20 12 13 18 16 10 8 9 13 13 5 3 359 352 344 338 333 338 337 333
230 236 243 248 243 245 253 260 264 266 275 277 275 249 236 228 236 226 212 309 244 82 74 62 65 36 13 356 342 335 332 336 339 337 336 333 334 338 341 342 345 347 336 327 325 325 326 328 329
236 240 246 248 244 249 259 265 268 269 273 276 269 247 238 242 248 249 253 255 241 243 254 263 289 311 314 314 316 314 314 312 309 308 312 312 310 313 314 315 321 326 323 320 318 320 321 324 324
237 241 245 243 247 259 262 264 268 270 274 271 255 245 241 249 259 274 268 245 234 244 262 270 280 292 295 296 302 305 302 298 291 290 297 302 299 300 301 306 310 309 311 313 312 314 314 316 317
237 239 246 251 252 253 257 266 273 270 269 267 254 252 252 252 261 271 265 247 243 252 263 268 275 283 288 289 290 295 299 296 289 287 288 291 292 292 293 296 300 300 300 303 305 307 308 307 307
236 235 243 250 252 257 256 264 268 270 265 262 260 256 256 255 257 262 261 255 251 251 257 266 274 279 283 283 285 286 289 291 287 284 285 285 287 286 286 288 289 292 295 297 299 300 300 300 301
239 239 242 246 252 257 259 259 264 263 262 260 262 260 254 252 256 260 260 260 257 255 258 265 273 277 280 283 286 288 286 284 283 285 286 282 281 281 283 286 288 289 289 292 295 295 295 297 297
239 239 243 248 251 256 260 259 262 262 265 267 267 264 260 256 264 262 260 267 264 262 266 266 269 276 280 284 286 287 283 280 280 287 289 285 283 283 282 284 286 288 289 290 291 292 292 293 293
243 243 247 251 253 257 260 260 263 264 267 270 272 269 269 267 266 267 264 264 268 268 271 271 271 274 278 281 283 283 282 280 282 282 282 282 283 286 286 287 286 287 289 290 290 291 290 290 289
Height
5880 5881 5881 5881 5881 5880 5878 5878 5878 5877 5878 5877 5877 5877 5876 5877 5877 5879 5876 5874 5873 5873 5872 5872 5871 5870 5869 5868 5867 5867 5866 5866 5865 5864 5863 5862 5863 5864 5866 5867 5867 5867 5867 5867 5870 5873 5875 5876 5878
5882 5883 5884 5883 5882 5880 5880 5879 5879 5879 5879 5879 5878 5878 5877 5877 5877 5877 5875 5875 5874 5874 5873 5872 5871 5870 5870 5869 5868 5868 5867 5867 5866 5865 5864 5864 5864 5865 5866 5867 5868 5869 5869 5869 5872 5874 5875 5877 5879
5884 5885 5885 5884 5883 5882 5882 5881 5880 5880 5880 5880 5879 5879 5878 5878 5878 5877 5877 5876 5875 5875 5874 5873 5872 5871 5871 5870 5869 5869 5868 5867 5866 5866 5865 5865 5865 5866 5867 5867 5869 5871 5871 5872 5873 5875 5877 5879 5880
5886 5887 5887 5886 5884 5883 5883 5882 5881 5881 5881 5880 5881 5880 5879 5879 5879 5878 5878 5877 5876 5876 5875 5874 5873 5873 5872 5871 5870 5870 5869 5868 5867 5866 5865 5865 5866 5867 5868 5869 5871 5872 5874 5875 5876 5877 5878 5879 5880
5888 5888 5888 5886 5885 5885 5884 5883 5882 5882 5882 5882 5882 5881 5881 5880 5880 5879 5879 5878 5877 5877 5876 5875 5875 5874 5873 5873 5872 5871 5870 5869 5868 5866 5866 5866 5866 5868 5869 5870 5872 5874 5875 5876 5878 5878 5879 5881 5882
5890 5890 5889 5888 5887 5886 5885 5884 5883 5883 5883 5883 5883 5883 5882 5882 5881 5881 5880 5879 5879 5878 5878 5877 5876 5875 5874 5874 5873 5872 5871 5870 5868 5867 5866 5866 5867 5869 5870 5872 5873 5875 5876 5878 5879 5880 5880 5882 5883
5892 5891 5890 5889 5888 5887 5887 5885 5884 5885 5885 5885 5885 5884 5884 5884 5883 5882 5881 5881 5880 5879 5879 5878 5877 5876 5876 5875 5874 5874 5872 5871 5870 5868 5867 5867 5869 5870 5872 5873 5875 5876 5878 5879 5880 5881 5882 5883 5884
5893 5893 5891 5890 5889 5889 5889 5887 5887 5887 5887 5887 5887 5886 5886 5885 5885 5884 5883 5882 5881 5880 5880 5879 5878 5877 5877 5877 5876 5875 5875 5873 5872 5871 5869 5870 5871 5873 5874 5875 5877 5878 5879 5880 5881 5882 5883 5884 5884
5895 5896 5893 5892 5892 5891 5891 5890 5890 5889 5889 5889 5889 5888 5888 5887 5886 5885 5884 5883 5882 5881 5881 5880 5880 5879 5879 5878 5878 5877 5877 5876 5875 5874 5873 5873 5874 5875 5876 5877 5878 5879 5880 5881 5882 5883 5884 5884 5885
5896 5896 5895 5895 5894 5893 5893 5892 5892 5891 5891 5890 5890 5890 5889 5888 5888 5887 5886 5885 5884 5882 5882 5881 5881 5881 5881 5880 5880 5879 5879 5878 5877 5877 5876 5876 5877 5877 5878 5879 5880 5881 5881 5882 5883 5883 5884 5885 5886
5898 5898 5897 5896 5896 5895 5895 5894 5894 5893 5893 5892 5892 5891 5890 5890 5889 5889 5887 5886 5885 5884 5883 5883 5883 5883 5883 5882 5882 5881 5881 5880 5880 5879 5879 5879 5879 5880 5880 5881 5882 5882 5882 5883 5884 5884 5885 5885 5886
5899 5899 5898 5898 5897 5897 5896 5896 5896 5895 5895 5894 5894 5893 5892 5892 5891 5890 5889 5888 5887 5886 5885 5885 5885 5885 5884 5884 5884 5883 5883 5882 5882 5881 5881 5881 5882 5882 5882 5883 5883 5883 5884 5884 5884 5885 5885 5885 5886
5900 5900 5900 5900 5899 5898 5898 5898 5897 5896 5896 5895 5895 5895 5894 5894 5893 5892 5891 5890 5889 5888 5888 5887 5887 5887 5887 5886 5886 5885 5885 5884 5884 5884 5883 5883 5883 5884 5884 5884 5884 5884 5884 5884 5885 5885 5885 5886 5886
5901 5901 5901 5901 5900 5900 5900 5899 5899 5898 5898 5897 5897 5897 5896 5896 5895 5894 5893 5892 5891 5890 5890 5889 5889 5889 5888 5888 5888 5887 5887 5886 5886 5886 5885 5885 5885 5885 5885 5885 5885 5885 5885 5885 5885 5885 5886 5886 5886
5902 5903 5903 5902 5901 5901 5902 5901 5900 5899 5899 5899 5898 5898 5898 5897 5896 5896 5895 5894 5893 5892 5892 5891 5891 5891 5890 5890 5890 5889 5889 5888 5888 5887 5887 5887 5886 5886 5886 5886 5886 5886 5885 5885 5885 5886 5886 5886 5886
5902 5903 5903 5903 5902 5902 5904 5903 5902 5901 5901 5900 5900 5900 5899 5898 5897 5897 5896 5896 5895 5894 5893 5893 5893 5893 5892 5892 5891 5891 5890 5890 5889 5889 5889 5888 5888 5887 5887 5887 5887 5886 5886 5886 5886 5886 5886 5886 5886
5902 5903 5903 5904 5903 5903 5903 5903 5903 5902 5902 5901 5901 5901 5900 5900 5899 5898 5898 5897 5896 5895 5895 5894 5894 5894 5894 5894 5893 5893 5892 5892 5891 5891 5890 5889 5889 5888 5888 5888 5887 5887 5886 5886 5886 5886 5886 5886 5885
5902 5903 5903 5903 5903 5903 5903 5903 5903 5903 5903 5902 5902 5901 5901 5901 5900 5899 5899 5898 5897 5896 5896 5896 5896 5895 5895 5895 5895 5894 5894 5893 5893 5892 5891 5890 5890 5890 5889 5888 5888 5887 5887 5887 5886 5886 5886 5886 5885
5901 5902 5903 5903 5903 5903 5903 5903 5903 5903 5903 5903 5902 5902 5901 5901 5901 5900 5900 5899 5898 5897 5897 5897 5897 5897 5896 5896 5896 5895 5895 5894 5893 5893 5892 5891 5891 5890 5890 5889 5888 5888 5887 5887 5886 5886 5886 5885 5885
5900 5901 5902 5902 5902 5902 5902 5903 5903 5903 5903 5902 5902 5902 5902 5902 5901 5901 5901 5900 5899 5899 5898 5898 5897 5897 5897 5897 5897 5896 5895 5894 5894 5893 5893 5892 5892 5891 5890 5889 5889 5888 5887 5887 5886 5886 5885 5885 5884
5899 5901 5901 5902 5902 5902 5902 5903 5903 5903 5902 5902 5902 5902 5902 5902 5902 5901 5901 5901 5900 5900 5899 5899 5898 5898 5898 5897 5897 5896 5895 5895 5894 5894 5893 5893 5892 5891 5890 5889 5889 5888 5887 5887 5886 5885 5885 5884 5883
5898 5899 5900 5900 5901 5901 5902 5902 5903 5902 5902 5902 5902 5902 5901 5901 5901 5901 5901 5901 5900 5900 5900 5899 5899 5898 5898 5898 5897 5896 5896 5895 5894 5894 5893 5893 5892 5891 5890 5889 5888 5887 5887 5886 5885 5884 5884 5883 5882
5897 5897 5898 5899 5899 5900 5900 5901 5902 5901 5901 5902 5901 5901 5901 5901 5901 5901 5901 5901 5900 5900 5900 5899 5899 5898 5898 5898 5897 5896 5896 5895 5894 5894 5893 5892 5892 5891 5890 5889 5888 5887 5886 5885 5885 5884 5883 5882 5881
5895 5896 5896 5897 5897 5899 5899 5899 5900 5900 5900 5900 5900 5900 5900 5900 5900 5900 5900 5900 5900 5900 5899 5899 5899 5898 5898 5897 5896 5896 5895 5894 5894 5893 5892 5891 5891 5890 5889 5889 5888 5887 5886 5885 5884 5883 5882 5881 5880
5892 5894 5895 5895 5895 5897 5897 5897 5899 5899 5899 5899 5899 5899 5899 5899 5899 5899 5899 5899 5899 5899 5899 5898 5898 5897 5897 5896 5895 5895 5894 5893 5892 5892 5891 5890 5889 5889 5888 5887 5886 5886 5885 5884 5883 5882 5881 5879 5878
5889 5891 5893 5893 5894 5895 5895 5895 5897 5897 5897 5897 5897 5897 5898 5898 5898 5898 5898 5898 5898 5897 5897 5897 5897 5896 5895 5894 5893 5893 5892 5892 5891 5890 5889 5888 5888 5887 5886 5885 5885 5884 5883 5882 5881 5880 5879 5878 5877
5886 5887 5889 5891 5891 5892 5893 5894 5895 5895 5895 5895 5895 5896 5896 5896 5896 5896 5896 5896 5896 5896 5896 5895 5895 5894 5893 5893 5891 5891 5890 5889 5888 5888 5887 5886 5885 5885 5884 5883 5882 5882 5881 5880 5879 5878 5877 5876 5875
5883 5884 5886 5887 5888 5889 5890 5891 5892 5892 5893 5893 5893 5893 5893 5894 5894 5894 5894 5894 5894 5894 5893 5893 5893 5892 5891 5890 5889 5888 5887 5886 5885 5885 5884 5883 5883 5882 5881 5881 5880 5879 5878 5877 5876 5875 5874 5873 5872
5879 5881 5882 5884 5885 5886 5887 5890 5890 5890 5890 5890 5890 5890 5890 5891 5892 5891 5891 5891 5891 5891 5891 5890 5890 5889 5889 5888 5887 5886 5884 5883 5882 5881 5881 5880 5879 5879 5878 5877 5876 5875 5874 5873 5872 5871 5870 5869 5868
5875 5876 5878 5880 5881 5882 5884 5888 5886 5886 5887 5887 5887 5887 5888 5888 5888 5888 5888 5888 5888 5888 5888 5887 5886 5886 5885 5885 5883 5882 5880 5880 5879 5878 5877 5876 5876 5875 5874 5873 5872 5871 5870 5869 5868 5867 5865 5864 5863